Find Local Weather

World > North America > United States > Ohio

Loveland, Ohio Regional Weather

Lat: 39.27N, Lon: 84.27W
Wx Zone: OHZ077
Warning FLW WEATHER ALERT - (More Info. Click Here) Warning
Feedback
Expires:201808190900;;884269
ASUS41 KCLE 190800
RWRCLE
OHIO REGIONAL WEATHER ROUNDUP
NATIONAL WEATHER SERVICE WILMINGTON, OH
400 AM EDT SUN AUG 19 2018

NOTE: "FAIR" INDICATES FEW OR NO CLOUDS BELOW 12,000 FEET WITH NO
SIGNIFICANT WEATHER AND/OR OBSTRUCTIONS TO VISIBILITY.


OHZ042-051>053-060>062-070>072-077>081-190900-
  SOUTHWEST OHIO
  
CITY           SKY/WX    TMP DP  RH WIND       PRES   REMARKS
CINC-COVINGTON FAIR      70  68  93 N6        29.94S                  
CINC-LUNKEN    FAIR      68  68 100 CALM      29.93F FOG              
HAMILTON       FAIR      67  66  97 CALM      29.94F                  
DAYTON         NOT AVBL                                               
WRIGHT-PAT AFB NOT AVBL                                               
DAYTON GENERAL FAIR      68  64  87 NE6       29.94F                  
WILMINGTON     FAIR      66  66 100 NE7       29.94F                  
$$


SKY/WX - Weather  TMP - Temperature  DP - Dewpoint  RH - Relative Humidity
WIND - Wind Direction/Speed PRES - Barometric Pressure